Location: Coll
(42.4728°N, 0.7714°E)
Time: 12:53:22
(UTC+00:00)

Cosmos 1656 - Pass Details

Date: 23 October 2020
Orbit: 797 x 851 km, 71.1° (Epoch: 01 December)

Event Time Altitude Azimuth Distance (km) Brightness Sun altitude
Rises 05:28:37 0° 329° (NNW) 3,421 6.5 -10.1°
Reaches altitude 10° 05:31:11 10° 322° (NW) 2,484 5.7 -9.6°
Maximum altitude 05:36:28 40° 254° (WSW) 1,231 4.2 -8.7°
Drops below altitude 10° 05:41:43 10° 186° (S) 2,464 6.2 -7.7°
Sets 05:44:17 0° 179° (S) 3,391 7.0 -7.2°
